GFSSGP_sfc_30mbdewp_000.txt.gz
Dewpoint
34 30 30 22 13 11 9 7 10 11 31 48 51 48 49 51 49 43 62 61 59 59 63 65 66 67 69 69 69 69 70 69 69 68 68 68 67 65 64 63 63 60 61 60 61 64 64 65 64
35 28 15 15 11 9 8 9 8 20 45 45 47 52 53 55 59 60 61 61 60 61 64 65 66 67 68 68 68 68 68 68 69 68 68 68 66 66 66 63 61 60 60 61 63 62 61 63 59
31 31 7 10 11 9 9 11 10 33 44 33 50 53 54 54 59 60 61 61 62 63 65 64 64 66 68 67 67 67 67 67 69 69 68 68 67 66 65 62 62 61 61 62 63 64 62 62 60
25 13 8 4 5 7 7 16 15 22 43 49 51 52 56 56 58 61 62 62 63 64 65 64 64 65 67 67 67 67 67 66 67 68 68 67 66 65 65 62 62 62 63 63 63 63 64 62 59
22 10 4 3 4 7 5 15 30 38 43 46 46 48 54 56 60 62 62 63 62 64 65 65 64 64 64 65 66 66 67 67 67 67 67 66 65 64 62 62 62 64 63 64 64 65 63 63 62
8 7 3 2 3 3 4 11 19 30 43 44 45 48 51 57 58 61 62 63 64 63 65 65 64 63 63 63 63 64 65 66 67 66 66 66 66 65 65 64 64 63 62 61 61 61 61 59 59
8 4 2 2 2 2 2 8 10 11 10 31 42 44 54 55 56 58 61 63 64 64 64 64 64 62 61 61 61 62 63 65 66 65 65 64 64 64 64 63 63 62 63 64 64 62 61 62 63
7 4 2 1 -0 -1 1 8 12 11 9 41 44 37 41 55 56 56 56 61 63 65 64 63 63 62 59 58 59 61 61 64 66 65 63 62 62 62 61 61 61 61 60 60 60 60 61 62 61
8 4 7 7 4 5 5 10 13 13 13 20 39 42 45 53 57 55 54 56 58 62 65 64 63 62 60 58 59 61 61 62 64 65 63 62 61 60 60 59 59 60 59 58 57 57 58 58 57
8 6 10 11 8 8 11 12 8 7 19 30 45 45 48 55 54 54 52 53 53 57 59 61 62 62 61 59 61 60 61 61 62 63 64 62 60 59 58 59 59 58 58 58 58 57 56 55 54
12 14 14 16 14 14 17 16 15 13 15 22 43 40 49 54 51 49 52 52 49 49 52 55 57 59 58 59 61 62 61 61 61 60 60 59 58 58 59 58 59 57 57 57 57 55 54 53 53
14 17 18 17 17 17 18 18 17 16 15 22 41 47 50 51 50 50 47 49 44 44 48 55 56 57 56 58 61 61 60 61 60 59 58 58 57 56 58 57 58 57 56 56 56 56 55 52 51
17 17 19 19 19 18 19 16 16 17 17 21 31 40 45 47 46 45 44 44 42 41 46 52 54 56 55 52 50 51 52 55 54 54 53 57 56 56 57 57 56 55 56 56 55 55 56 55 55
23 21 22 20 20 20 19 19 19 19 16 21 30 30 31 32 33 35 35 37 38 39 44 51 52 54 55 52 50 47 47 47 48 50 51 54 55 53 55 56 56 54 52 51 50 49 48 49 51
23 21 20 21 20 19 16 11 12 13 16 20 23 28 29 29 32 33 32 31 32 38 41 45 48 50 49 52 51 48 45 44 46 48 50 51 48 44 46 47 51 50 50 51 50 47 48 45 48
23 21 18 18 21 17 12 10 12 15 17 19 22 24 28 29 30 32 32 32 32 34 39 40 43 47 46 50 50 49 46 43 44 48 47 47 47 45 44 44 43 40 42 47 36 36 37 37 38
18 14 15 16 18 16 14 13 18 21 18 18 20 21 24 26 26 28 29 32 32 35 35 32 39 41 40 41 44 41 42 39 40 47 48 46 45 44 42 45 42 38 39 38 36 36 37 34 34
16 14 15 17 19 24 21 20 23 19 18 18 18 19 21 24 27 29 29 31 32 32 33 30 27 29 35 37 36 35 36 37 38 43 47 46 43 41 38 42 42 38 38 38 38 35 37 36 35
17 18 21 21 22 25 23 24 23 21 20 20 21 23 25 28 31 31 30 31 29 29 29 30 30 30 32 32 32 32 30 33 35 37 45 45 43 40 36 36 41 41 37 37 37 35 35 34 36
19 21 21 23 24 26 25 23 18 17 18 20 23 24 24 26 29 29 29 29 28 28 28 29 29 30 31 31 32 31 30 31 32 33 36 41 43 39 36 35 37 39 38 36 37 37 36 36 37
18 21 22 23 26 27 25 19 16 18 22 23 23 24 24 24 26 29 31 30 30 29 29 29 29 30 31 32 32 32 34 34 33 33 34 36 40 39 36 35 36 35 35 33 34 34 34 33 35
19 21 24 25 25 22 26 21 19 17 19 22 23 24 24 25 27 26 28 31 32 31 32 31 32 32 32 33 33 31 30 29 30 30 31 34 38 38 38 37 36 36 37 36 37 37 36 36 32
22 24 27 27 26 25 23 21 19 18 17 20 24 26 27 28 28 28 28 28 30 32 34 34 34 34 34 36 36 34 32 32 32 32 31 31 34 37 38 37 37 38 37 33 30 29 26 29 27
28 28 29 29 26 21 23 21 19 21 20 23 26 27 28 28 29 31 31 32 34 36 36 37 37 37 37 38 37 37 35 34 33 33 33 34 35 36 37 36 35 33 30 29 27 27 26 25 25
28 28 23 16 21 22 26 23 20 21 22 23 24 26 27 28 29 30 30 36 37 37 38 37 37 37 37 37 36 37 38 38 36 34 34 36 32 30 30 30 30 28 29 30 31 32 32 30 26
27 29 25 19 22 23 26 21 21 25 25 24 25 27 29 31 32 33 36 37 37 37 37 37 37 36 35 36 35 37 38 38 39 37 36 34 32 31 31 32 34 35 35 35 34 34 34 30 27
28 27 30 26 28 26 26 27 24 26 29 29 29 30 32 33 35 35 36 37 37 37 38 38 38 37 37 36 34 33 33 34 32 31 31 31 30 30 33 36 39 40 40 39 35 31 28 30 29
29 30 27 29 24 25 25 25 23 25 30 31 31 31 32 32 32 34 36 37 37 38 39 39 38 38 37 29 32 29 29 28 29 27 27 28 32 36 38 39 38 39 38 34 31 30 29 28 29
27 30 30 31 30 28 27 28 29 30 31 31 32 32 32 32 34 36 37 38 38 38 39 39 39 38 29 28 31 29 26 27 25 25 27 28 30 32 31 32 33 33 32 30 29 27 28 27 27
32 31 31 28 27 29 28 27 31 32 31 31 31 33 33 33 35 38 38 38 38 38 38 38 39 31 29 29 30 29 27 25 24 26 27 27 27 26 26 27 27 27 27 28 27 26 24 23 22

GFSSGP_sfc_30mbdewp_003.txt.gz
Dewpoint
42 32 30 21 11 10 8 6 9 10 47 51 49 47 47 52 48 39 61 58 59 62 65 66 67 69 69 69 70 70 70 69 68 69 68 67 65 64 63 65 62 61 61 60 64 64 65 66 64
40 29 14 15 10 8 8 11 30 38 50 52 52 52 53 54 58 60 59 58 59 63 64 65 67 68 68 68 68 69 69 69 69 68 68 67 66 66 66 63 62 60 59 61 60 61 64 64 64
33 24 6 11 11 8 13 12 37 44 46 39 52 55 54 55 59 60 60 60 63 63 63 65 67 67 67 67 67 67 68 69 69 68 68 67 66 66 65 63 60 60 60 60 61 61 60 61 61
24 11 8 6 5 7 16 21 20 34 44 50 52 52 55 57 59 61 61 61 61 62 63 63 66 66 66 66 66 66 66 67 68 68 67 66 65 64 64 62 61 61 61 60 61 62 64 63 62
11 8 3 3 5 8 20 33 37 37 42 45 46 51 54 57 61 61 61 61 60 63 64 63 63 64 65 65 65 66 66 66 67 67 67 66 65 64 61 62 62 62 63 62 63 64 63 63 62
6 6 1 2 2 3 9 21 25 36 40 42 46 50 53 58 60 61 62 62 61 61 63 63 63 62 62 64 64 65 66 66 66 66 66 66 64 64 63 62 62 63 62 61 61 61 61 60 58
4 2 3 2 0 1 2 9 10 9 21 31 46 50 55 57 60 61 62 63 62 63 63 63 62 62 62 61 62 64 65 66 65 64 64 65 64 64 63 62 62 61 62 63 62 62 61 60 63
7 3 1 1 -1 -1 1 8 11 11 18 41 43 39 53 56 57 60 62 63 63 63 62 62 61 61 60 61 62 62 64 65 65 63 62 61 62 62 61 60 60 59 59 57 57 59 59 59 59
8 6 6 5 3 5 8 9 13 13 27 24 42 42 45 56 57 57 59 61 63 64 62 62 62 61 59 58 60 61 62 64 65 64 62 61 60 59 58 58 59 59 59 58 58 57 57 55 53
9 7 9 10 8 8 12 10 9 11 29 40 43 46 51 55 55 54 56 58 60 62 63 63 63 62 60 58 60 60 60 62 64 64 62 60 58 58 57 57 57 58 57 57 57 57 56 54 53
13 13 13 15 13 12 16 16 15 13 21 38 38 45 53 55 55 53 55 56 56 61 62 63 63 62 61 60 60 60 60 60 61 61 62 60 58 58 58 57 58 56 56 55 55 54 53 50 50
13 16 16 16 17 17 16 17 16 15 14 23 41 45 53 54 53 49 52 53 52 54 54 56 58 58 57 59 60 60 60 60 60 59 59 57 56 56 57 57 58 58 56 55 55 55 55 54 54
17 17 18 19 18 18 18 16 15 16 17 22 41 43 49 52 50 50 50 49 48 46 49 54 56 57 54 56 55 57 58 60 59 58 57 57 56 55 56 56 57 56 56 56 55 53 53 53 53
23 22 21 21 20 20 19 18 19 18 18 21 35 44 48 49 48 42 44 46 45 43 45 51 54 56 53 50 49 50 51 54 53 53 53 56 56 55 55 56 55 55 53 52 49 47 46 45 48
22 19 21 20 21 20 19 13 13 17 16 20 30 40 41 43 37 35 41 44 42 40 43 49 51 54 53 52 50 48 47 47 48 50 51 54 54 50 52 54 54 53 49 49 48 42 45 40 43
19 19 15 17 21 18 12 11 12 15 17 16 21 29 29 29 30 32 35 35 35 38 41 46 48 49 48 51 51 50 48 46 45 48 49 50 48 44 43 44 47 46 41 48 42 35 36 37 36
18 13 14 16 22 23 15 13 13 20 20 18 18 22 26 28 27 27 29 31 31 35 39 38 44 46 45 47 48 47 45 44 42 46 48 47 47 45 44 43 42 41 39 39 36 36 37 34 34
15 13 17 17 20 26 24 19 22 24 19 18 19 20 21 23 27 30 29 30 32 36 34 32 38 39 39 38 38 36 36 38 40 39 44 47 46 45 42 43 44 42 38 38 38 36 37 36 35
18 19 21 21 22 25 25 25 24 22 20 19 19 21 27 28 30 30 30 31 32 32 31 27 27 28 33 33 33 33 32 32 35 36 37 43 46 44 41 39 41 42 38 37 38 37 35 35 36
19 20 18 23 25 27 25 24 17 18 20 22 23 26 27 28 28 29 29 28 28 29 29 29 29 29 30 31 31 31 31 31 32 33 35 39 44 44 42 38 38 41 40 38 38 37 36 36 37
18 19 20 22 26 26 25 20 16 20 22 24 24 25 26 28 28 29 28 27 28 27 28 28 28 29 30 32 32 32 33 33 32 32 33 34 40 44 43 39 36 38 41 38 37 37 36 32 36
19 20 23 24 25 22 25 17 20 17 21 22 24 24 25 26 26 28 30 30 30 30 31 31 31 32 32 33 33 32 31 31 31 32 32 32 36 37 41 40 37 36 38 37 35 36 35 33 30
24 27 27 28 27 25 23 20 21 21 17 21 25 26 26 27 27 27 28 28 30 32 32 36 37 37 37 37 37 37 36 36 36 35 35 34 33 36 39 40 38 37 38 37 37 35 31 27 26
29 29 28 29 26 21 24 23 20 21 21 24 26 27 28 28 29 31 32 35 37 38 37 37 37 37 37 36 37 37 36 36 37 37 36 36 36 36 37 38 38 36 32 29 27 26 25 26 26
29 28 17 16 18 21 27 22 21 23 24 25 26 27 28 28 28 30 32 36 37 37 37 37 37 37 37 37 36 34 35 36 37 36 37 36 34 34 34 33 31 31 32 34 34 35 35 34 34
28 28 23 16 20 22 26 22 23 25 25 25 26 27 30 32 33 35 36 37 36 37 38 38 38 37 37 36 30 30 32 34 35 36 35 36 32 32 34 37 38 39 39 40 40 40 38 37 35
29 27 30 26 27 26 26 27 27 29 31 27 30 31 33 34 35 35 36 36 36 36 37 38 37 37 38 32 29 31 31 31 32 31 33 32 32 35 39 39 39 39 39 39 39 37 36 33 31
29 30 27 28 24 22 25 26 24 27 31 30 31 31 31 32 33 35 36 36 36 37 38 38 38 38 37 29 31 31 31 30 31 31 30 30 34 38 39 38 34 33 35 37 37 36 32 31 30
30 30 30 30 29 26 25 26 30 30 29 31 31 32 32 32 34 36 37 37 37 38 38 38 38 39 33 31 32 32 32 29 29 29 30 32 35 33 31 30 30 34 36 35 34 31 29 28 27
32 31 30 26 24 27 26 25 30 30 31 32 32 34 35 34 35 37 38 38 38 38 39 38 39 38 32 33 33 32 30 29 26 28 29 29 26 26 26 27 27 28 28 28 28 26 25 24 22

GFSSGP_sfc_30mbdewp_006.txt.gz
Dewpoint
41 32 29 20 11 9 7 7 9 27 44 50 50 47 51 55 48 40 60 59 60 63 65 67 68 69 69 70 69 69 69 69 69 68 67 66 64 64 65 64 63 61 60 60 62 63 65 66 66
41 28 15 15 9 8 9 15 35 40 50 52 51 51 53 54 59 59 56 58 61 63 64 66 67 68 68 69 70 69 69 69 69 68 68 67 66 66 65 64 63 60 60 60 61 60 64 65 64
31 15 7 11 11 11 13 16 43 48 50 44 52 55 54 56 60 60 59 59 63 62 64 66 67 66 67 67 67 68 69 69 69 68 68 67 66 66 66 63 60 60 61 60 61 62 62 62 61
22 10 7 10 15 14 18 29 44 45 45 51 53 52 55 58 60 60 60 62 61 61 62 66 65 65 65 65 65 65 67 67 67 67 67 66 65 64 64 62 61 62 62 61 62 62 63 64 63
10 7 4 6 12 18 24 30 33 39 43 45 48 52 54 59 61 60 60 61 59 61 62 64 64 65 65 65 65 65 66 67 67 67 67 66 65 64 60 60 62 62 63 62 62 62 62 63 62
6 5 4 3 6 5 14 22 33 37 41 46 48 51 53 60 60 60 61 60 61 61 62 62 63 63 64 65 64 65 65 65 65 66 66 65 64 64 63 63 63 62 63 63 63 63 61 61 60
3 3 3 1 0 1 3 5 10 17 26 37 50 48 55 58 60 61 61 61 61 62 62 62 62 62 62 62 63 64 65 65 64 64 65 64 64 63 62 62 61 60 60 59 60 60 61 62 61
5 3 1 1 -1 -1 3 9 11 12 24 42 45 44 49 57 60 62 63 62 62 62 62 61 61 60 60 61 61 62 64 65 64 63 62 61 62 62 60 58 60 59 59 59 58 58 58 57 56
8 5 2 1 1 5 9 9 13 17 30 28 43 45 45 56 59 60 61 62 62 62 61 61 60 60 58 58 60 61 62 64 64 63 62 61 59 58 57 58 58 59 58 57 57 57 57 55 54
8 6 7 9 7 9 12 9 9 18 31 37 42 47 54 56 57 59 60 59 61 61 62 61 61 60 59 57 59 60 61 62 64 64 62 60 58 57 57 57 57 57 57 56 57 55 54 50 50
15 10 13 14 12 11 15 16 15 17 24 35 30 45 54 56 55 57 58 59 60 61 62 62 62 62 61 59 59 59 59 60 61 63 62 60 59 57 57 56 56 55 56 54 55 54 54 53 52
13 15 15 16 17 17 16 17 15 15 14 26 38 47 54 55 54 54 55 57 57 59 61 62 62 62 61 60 60 59 59 59 60 59 60 59 57 55 56 56 56 57 56 55 55 55 55 54 54
18 17 18 19 17 17 18 17 15 16 18 19 36 49 53 55 55 53 53 55 54 56 58 57 58 58 56 58 59 59 60 60 60 59 58 57 56 55 55 56 56 57 55 55 54 52 49 48 48
22 22 21 21 20 20 19 19 18 17 18 19 38 43 52 53 54 50 50 49 51 51 52 54 55 57 54 52 53 54 56 57 58 57 57 56 56 55 54 55 55 55 54 54 50 46 44 43 45
23 19 19 19 21 20 19 15 14 18 15 17 26 42 45 49 49 46 44 46 48 47 46 51 53 55 53 51 49 48 49 50 52 53 52 52 54 55 54 54 55 54 53 49 48 46 43 40 40
18 17 14 18 20 17 13 15 15 14 18 19 18 33 42 45 42 37 34 40 44 42 43 49 51 52 52 51 51 50 48 47 46 47 49 50 52 52 49 49 50 52 50 48 48 38 35 36 36
17 11 14 16 23 25 20 18 16 17 23 23 19 21 33 32 29 27 30 34 37 39 41 46 46 48 47 48 50 50 49 48 46 45 47 48 49 49 45 44 44 46 44 41 44 37 36 35 34
15 13 18 17 21 25 25 23 25 25 23 22 19 20 24 25 27 30 30 30 32 35 40 40 42 45 44 41 40 39 38 38 41 41 42 46 47 47 46 44 43 43 41 39 38 36 37 36 34
19 18 20 21 23 26 25 25 19 20 20 19 19 22 26 28 29 30 31 32 34 36 35 33 34 35 35 34 33 33 32 33 34 36 38 40 44 46 46 45 43 44 42 40 38 37 36 35 37
18 19 16 22 24 27 26 23 17 21 22 23 25 27 27 27 28 29 30 31 31 32 31 29 28 29 30 32 32 32 32 32 32 33 34 36 38 42 45 45 42 42 43 40 38 37 36 36 36
21 17 19 22 25 26 24 19 19 20 23 24 25 26 27 27 27 28 28 28 28 28 29 29 29 29 30 32 33 32 33 33 33 33 33 33 35 37 42 44 43 41 42 40 39 38 36 34 37
21 21 25 25 26 21 25 17 21 22 21 23 24 24 25 27 28 29 29 29 29 30 31 33 34 35 36 36 36 36 35 35 35 36 35 36 36 36 38 43 44 41 40 40 40 39 38 35 34
25 29 28 27 27 25 24 19 20 22 19 21 24 25 26 26 27 27 28 31 37 35 37 37 37 37 37 37 37 36 34 36 38 38 38 38 38 37 37 38 40 41 39 39 38 37 36 31 30
30 29 26 28 26 21 25 23 21 22 22 24 26 26 27 28 29 31 35 37 37 37 37 38 37 37 37 38 35 33 33 33 34 34 35 37 38 37 36 38 39 38 36 32 31 32 30 29 31
29 25 16 18 18 19 26 23 20 24 25 25 25 26 28 30 31 31 36 36 36 37 37 38 38 37 38 37 32 32 33 33 32 33 34 35 35 33 33 34 35 37 38 38 39 38 37 37 37
28 28 23 15 18 21 27 22 24 27 27 26 27 31 33 35 36 36 36 36 36 36 37 38 38 37 38 36 31 33 34 33 33 33 33 33 34 34 38 38 38 38 39 39 38 38 39 39 38
28 27 30 26 26 26 25 27 28 30 30 30 32 32 31 32 33 34 36 36 36 36 37 38 38 38 39 37 32 34 34 34 33 32 32 33 33 38 38 38 38 38 38 38 38 36 35 35 35
30 31 25 27 22 19 23 24 24 28 28 32 31 31 32 32 34 35 36 37 37 38 38 39 38 38 39 35 33 34 34 34 33 32 31 32 35 38 39 37 35 34 32 35 37 38 38 37 36
30 29 29 29 28 25 24 24 30 29 30 31 32 34 35 34 33 34 36 37 38 38 39 39 38 38 39 33 34 34 34 33 31 30 31 32 36 35 31 31 31 31 34 35 35 35 33 30 28
32 29 28 22 22 27 26 24 30 31 32 32 34 35 36 36 36 36 37 38 39 38 39 39 38 39 35 35 35 34 31 27 28 28 30 31 27 26 25 25 26 27 27 28 28 27 26 24 23

GFSSGP_sfc_30mbdewp_009.txt.gz
Dewpoint
38 30 29 22 12 12 9 12 10 35 46 50 50 45 49 54 46 41 60 59 60 63 66 67 68 69 69 69 68 68 69 69 68 68 67 66 65 65 66 64 64 62 61 60 61 61 64 66 66
38 22 18 17 11 12 21 20 21 44 51 52 53 53 53 51 59 58 57 58 59 62 64 66 67 68 69 70 69 69 69 69 68 68 67 66 66 66 65 65 62 61 61 60 61 62 62 63 63
28 13 12 14 13 11 24 27 45 49 49 49 52 55 55 55 59 58 59 58 60 61 64 66 66 67 67 68 69 70 70 69 69 68 68 67 66 66 65 63 61 61 62 61 62 62 63 64 64
20 11 11 21 18 15 25 35 48 46 46 52 53 50 55 58 59 60 57 59 59 59 63 65 65 66 66 66 66 67 67 67 67 68 67 66 65 64 63 63 62 62 63 63 63 64 64 64 63
11 11 14 20 21 24 26 32 41 41 44 47 50 51 54 59 61 59 59 60 57 59 62 63 64 64 65 65 65 65 65 66 67 67 66 66 65 63 61 60 62 63 63 63 63 63 62 61 60
7 10 15 17 16 10 22 26 37 40 46 49 49 51 54 60 59 59 60 59 58 58 60 62 64 64 64 64 64 64 65 65 65 65 66 65 65 64 63 63 62 62 61 61 62 62 63 63 63
5 7 4 4 4 3 6 6 19 28 33 38 49 47 56 59 60 60 60 59 60 60 60 61 61 61 63 63 63 63 64 64 63 63 64 63 64 63 62 61 61 60 60 59 60 60 60 59 58
7 6 3 2 1 2 4 11 11 19 31 45 48 42 51 57 60 61 61 60 60 61 60 61 61 60 60 61 61 62 63 64 63 62 61 61 61 61 60 57 59 59 59 59 58 58 58 57 57
11 4 2 0 2 6 10 10 14 23 34 30 40 49 48 58 61 61 62 60 61 61 61 61 61 60 59 59 60 61 62 64 64 62 61 60 59 59 57 57 58 59 57 57 57 57 56 54 53
9 7 7 8 7 10 13 10 10 19 31 38 42 48 55 59 60 60 60 59 60 60 61 61 62 61 60 57 60 61 61 62 63 63 62 61 60 58 58 57 57 58 57 56 56 56 54 50 50
15 9 13 13 10 13 15 16 14 19 22 30 28 46 56 58 59 59 59 59 59 60 61 61 62 63 61 59 59 60 60 61 61 63 63 61 60 60 59 58 57 57 57 56 55 55 55 56 55
15 15 16 16 17 16 15 17 15 18 15 23 36 49 55 56 57 59 59 59 59 60 62 63 63 63 63 62 61 60 60 60 60 61 62 62 60 59 58 57 57 58 58 57 56 56 56 55 55
18 17 18 18 16 16 18 17 16 17 18 18 39 51 54 55 55 57 58 59 59 59 60 63 63 63 61 60 60 61 61 61 61 61 61 60 59 58 57 56 57 57 57 57 56 55 50 47 45
22 21 21 21 20 21 19 19 19 18 19 21 36 46 52 55 55 54 54 55 56 57 58 60 59 59 58 57 59 59 60 60 60 60 60 60 59 58 57 56 56 56 56 56 56 51 46 44 44
23 17 19 20 21 19 19 17 16 17 16 18 28 41 50 53 55 54 52 51 51 54 54 55 56 57 57 55 53 52 53 54 57 58 59 58 57 56 56 55 55 55 56 56 53 49 47 44 42
18 17 16 19 23 23 17 17 19 17 19 21 22 27 43 48 49 44 44 39 44 48 50 52 53 54 56 54 54 52 51 50 50 50 51 53 53 54 54 53 53 53 55 54 51 49 44 38 39
17 9 15 17 25 26 24 21 23 25 25 25 23 21 34 41 38 31 32 34 41 45 47 49 52 52 52 51 51 53 52 51 50 49 48 49 51 52 52 51 50 51 50 51 50 47 44 37 37
14 14 18 17 21 26 25 24 25 21 21 23 21 22 28 32 29 31 32 32 35 42 45 47 47 49 49 47 46 43 43 42 43 43 44 46 46 50 50 50 50 49 46 46 45 44 42 38 37
18 18 19 21 24 26 26 24 19 22 22 21 22 24 26 28 30 31 33 35 36 39 42 42 42 44 42 39 37 36 36 36 37 37 39 40 41 44 47 47 47 48 46 45 44 43 42 39 40
19 18 17 22 24 27 26 21 20 23 25 27 27 28 28 29 29 31 33 35 37 38 38 34 33 34 34 34 35 36 36 36 37 38 40 40 40 40 41 44 44 44 45 46 46 44 41 39 40
23 19 20 22 25 27 24 21 22 21 24 25 27 28 28 28 29 29 30 32 33 33 33 33 34 36 38 39 37 38 38 38 36 35 36 37 40 40 40 41 42 43 44 43 45 45 42 39 39
21 24 28 26 26 21 25 17 22 22 22 24 25 26 28 28 29 30 31 33 35 36 40 39 39 39 39 40 38 37 35 34 35 36 36 38 39 40 40 40 41 42 43 43 43 43 43 41 38
27 30 29 28 27 26 26 20 22 24 21 21 25 26 28 29 31 33 37 38 38 39 40 40 39 39 40 39 37 36 36 36 36 36 35 35 37 39 39 39 40 41 41 42 42 43 42 40 39
30 29 26 28 27 22 25 23 22 24 24 24 26 28 30 31 31 35 38 38 38 40 41 41 39 39 40 40 36 37 37 37 37 36 35 34 35 36 37 37 39 39 39 38 38 36 37 36 36
30 24 17 18 19 19 26 24 23 26 26 26 27 29 34 37 36 36 37 37 37 38 39 39 39 38 39 40 36 36 38 38 36 35 34 33 34 34 36 37 39 39 39 39 39 39 39 39 38
30 28 23 12 17 21 27 22 25 30 31 30 33 33 33 34 36 37 37 37 37 38 39 40 39 38 39 40 38 37 38 37 35 35 35 35 34 35 39 39 39 39 39 39 39 39 38 37 37
29 28 30 26 26 26 25 27 29 30 30 32 31 33 33 34 35 36 37 38 39 39 39 40 40 38 39 41 38 37 37 36 35 36 34 33 35 37 39 39 39 39 39 39 38 38 37 35 35
30 31 25 28 20 18 22 25 22 28 29 31 32 34 35 36 35 36 36 38 39 40 40 41 41 39 39 40 36 36 36 36 34 31 32 33 35 39 40 36 34 33 33 32 35 35 36 36 35
30 28 29 29 29 25 24 23 30 29 31 31 33 35 36 37 37 37 37 38 39 40 40 40 41 39 40 36 36 37 35 31 28 30 32 34 37 34 31 29 30 31 32 31 32 33 32 30 29
32 28 27 22 20 27 27 23 29 31 32 32 34 36 37 38 38 38 38 39 40 39 38 40 41 40 36 36 37 35 30 27 29 31 31 32 30 29 29 30 33 34 33 30 29 28 26 24 22

GFSSGP_sfc_30mbdewp_012.txt.gz
Dewpoint
36 28 28 23 13 17 20 23 31 40 41 47 46 41 43 49 44 41 56 57 53 57 63 65 68 69 69 69 68 68 68 68 69 68 66 66 66 66 65 64 64 62 61 61 62 62 65 65 64
29 20 19 16 11 11 18 25 29 39 45 47 47 47 42 43 51 54 55 55 53 57 61 63 67 69 70 69 69 69 69 69 68 67 66 66 66 65 65 63 61 61 61 61 61 63 64 65 64
25 18 13 12 10 15 19 28 40 45 46 46 45 49 48 46 51 53 54 52 52 55 59 63 67 67 68 69 70 70 69 69 68 68 67 67 66 65 64 63 62 63 63 63 63 64 65 64 63
19 12 18 12 13 23 26 34 38 42 47 46 40 41 51 56 54 54 55 53 48 51 55 63 65 66 66 66 67 67 67 67 67 67 67 66 65 64 61 61 63 63 63 63 63 63 62 62 62
11 13 15 15 20 27 32 38 40 36 40 43 44 43 48 57 58 56 57 54 50 50 54 56 64 64 64 65 65 65 66 66 67 67 66 66 64 63 63 62 63 63 63 63 63 63 62 61 63
9 18 13 14 21 28 31 35 34 31 36 41 40 41 47 58 56 56 56 52 50 52 55 55 62 64 64 64 64 64 64 64 65 65 66 65 64 63 63 62 62 62 61 61 61 63 63 62 60
10 11 11 14 18 19 21 26 27 27 30 32 40 37 49 54 54 55 53 51 52 51 52 55 55 60 63 63 63 63 64 63 63 63 64 63 63 62 61 61 61 60 60 59 59 60 59 59 58
8 5 5 6 4 4 8 10 14 18 30 44 41 30 42 50 56 55 53 52 53 54 54 56 57 56 57 57 61 62 63 63 63 62 61 61 61 60 59 56 58 59 58 58 58 58 57 57 57
10 1 -0 2 2 5 9 7 14 29 28 31 35 37 42 52 57 56 55 54 54 56 58 58 58 58 58 56 58 59 61 63 62 61 60 60 56 57 55 56 57 58 57 57 57 56 54 52 53
6 1 3 5 6 5 8 6 11 17 21 27 34 44 49 55 57 56 55 52 55 56 58 59 60 60 59 54 57 58 58 57 59 59 61 58 59 58 57 57 57 57 57 54 55 55 54 52 45
11 4 8 8 10 8 7 9 11 9 12 16 17 36 49 54 55 54 52 47 50 53 56 59 62 62 60 55 55 54 54 56 57 61 61 59 60 58 57 56 54 53 55 52 51 51 48 50 50
10 13 10 11 13 11 9 13 12 12 9 20 24 34 45 49 49 48 48 46 46 51 55 59 61 63 62 57 54 54 54 55 56 57 62 60 58 57 57 54 52 51 50 52 50 50 53 51 48
12 15 16 15 14 13 16 14 17 15 14 18 31 39 40 43 44 47 47 46 49 53 56 60 62 63 60 59 55 57 57 55 57 57 57 60 57 55 54 52 51 49 49 49 49 48 48 45 42
22 20 21 21 19 21 19 19 19 16 19 18 29 35 39 40 40 43 48 48 52 54 55 60 62 62 56 54 56 55 55 54 55 53 53 58 58 53 51 49 46 45 45 46 47 46 46 42 41
23 19 21 21 21 20 19 17 15 17 18 18 22 28 36 39 40 41 44 49 51 52 53 58 60 57 55 53 52 50 48 51 48 48 52 55 55 51 51 47 46 45 45 48 49 49 47 44 39
17 17 13 21 21 24 21 13 18 24 22 19 23 24 35 39 42 46 50 50 47 47 50 55 56 53 53 50 50 47 46 48 46 47 48 50 51 52 50 47 46 46 47 46 45 45 43 42 39
13 6 12 18 23 24 22 17 22 22 22 24 21 24 28 35 45 45 41 41 42 42 47 53 54 50 49 49 48 49 50 48 45 45 43 44 46 47 48 46 45 47 47 45 45 44 43 42 38
9 9 12 13 19 20 19 20 20 22 22 25 25 23 24 34 40 39 36 34 35 44 49 52 50 49 49 47 46 42 41 40 40 38 39 41 41 43 45 44 46 47 47 45 43 44 43 41 40
17 15 15 16 23 25 24 21 20 22 23 24 23 24 28 33 32 33 36 38 39 44 46 45 46 43 41 37 36 35 36 36 37 39 41 42 41 42 42 42 42 43 43 44 46 45 44 44 41
19 17 16 21 24 26 24 20 20 23 25 26 25 26 28 29 29 33 36 39 40 40 39 37 36 37 36 35 37 39 40 39 40 39 39 38 38 38 37 39 40 39 40 41 43 45 45 44 42
23 20 23 23 25 26 24 21 20 22 25 26 26 27 27 28 29 31 33 36 38 39 38 37 38 40 41 40 37 37 37 37 35 35 34 35 36 36 36 36 37 39 39 38 39 41 42 42 43
20 26 28 26 24 15 26 15 21 21 22 24 26 28 29 29 30 32 34 36 39 41 41 40 39 39 39 40 37 38 36 35 36 36 35 36 35 34 34 35 37 38 38 38 38 38 40 41 40
27 31 28 28 25 23 23 18 22 22 20 22 25 28 30 31 34 36 37 38 39 40 41 41 39 39 40 39 39 37 37 37 36 36 35 33 30 31 32 34 37 38 39 39 42 42 42 42 41
31 29 29 29 28 23 25 22 22 24 25 24 26 30 33 34 33 36 38 38 38 40 42 41 39 38 40 40 38 39 39 38 36 34 32 30 30 30 31 34 38 39 40 40 40 40 41 40 40
28 25 20 24 23 21 25 22 26 27 27 29 30 33 35 37 36 36 36 36 38 39 40 39 39 37 38 39 37 36 36 37 35 34 32 32 29 30 33 37 38 39 40 40 39 40 39 38 37
29 28 25 19 19 20 25 19 25 29 31 32 32 33 34 34 36 36 36 36 38 40 40 41 39 37 35 36 36 36 38 38 35 34 33 31 31 33 36 39 38 38 37 37 39 41 40 38 37
28 28 30 28 28 27 21 25 29 29 30 30 32 33 34 34 35 35 35 36 38 39 40 41 40 39 38 39 39 39 39 36 34 32 32 31 33 34 38 39 38 36 35 34 35 37 36 36 34
30 31 26 25 22 14 11 16 16 28 29 30 31 32 34 34 35 35 36 37 37 39 41 41 40 39 40 40 38 37 36 34 32 32 32 34 35 38 38 36 33 33 35 37 37 35 33 34 35
30 29 29 27 28 20 17 12 28 28 30 29 31 32 34 35 36 36 37 37 39 40 38 38 39 39 37 37 36 35 34 32 32 32 32 33 34 31 30 30 32 36 38 38 37 34 30 27 25
31 28 27 22 21 26 27 19 27 29 31 32 32 34 35 36 35 36 37 38 39 37 36 35 36 35 35 35 34 34 33 32 32 33 33 34 34 33 32 36 37 38 38 36 32 30 27 23 22

GFSSGP_sfc_30mbdewp_015.txt.gz
Dewpoint
39 31 24 24 14 14 21 25 30 32 35 39 38 37 36 42 45 45 50 48 55 59 62 65 70 70 69 68 68 69 68 68 68 67 66 67 66 65 65 64 63 62 62 62 62 63 65 65 64
26 18 21 17 13 12 18 21 28 33 35 35 35 34 35 39 48 50 46 49 54 58 60 65 69 70 69 69 70 69 68 67 67 66 66 66 66 66 64 62 62 62 63 63 63 63 65 64 63
33 20 15 11 10 10 18 21 33 35 37 37 36 38 39 41 45 46 47 49 52 55 59 65 67 69 69 69 70 69 69 68 68 68 67 66 66 65 63 62 63 63 63 63 63 64 65 65 64
19 12 14 11 16 19 23 31 33 34 37 37 31 37 48 47 47 48 47 46 47 49 56 65 66 66 67 67 67 68 67 67 68 67 67 66 65 62 61 62 63 63 63 63 63 62 61 61 61
16 13 11 11 18 23 29 30 31 32 34 33 32 31 46 52 51 48 46 43 44 46 50 58 64 64 65 64 65 65 66 66 66 66 66 65 63 63 63 63 63 62 61 62 62 63 63 63 63
11 15 11 15 19 25 29 31 28 27 29 29 31 35 45 51 48 49 46 43 44 48 49 52 61 64 64 63 64 64 64 64 65 66 65 64 63 63 62 62 61 61 60 60 61 61 61 60 59
12 14 12 16 18 20 22 24 21 21 23 24 28 33 44 46 48 47 44 43 43 47 49 50 53 59 62 62 63 63 63 63 63 63 63 63 62 61 60 60 60 60 60 59 59 59 59 58 58
10 11 11 12 13 10 11 13 16 18 27 28 30 30 41 45 48 46 44 44 46 48 51 52 52 52 54 59 61 62 63 63 62 61 60 60 61 60 58 58 59 59 58 58 57 57 56 56 56
8 4 2 2 2 4 5 5 8 18 22 24 26 33 40 48 48 46 45 45 48 49 53 52 53 52 52 50 57 58 60 61 61 61 60 59 56 55 55 56 56 57 57 57 56 55 53 53 54
6 1 2 2 4 3 4 3 7 15 16 21 28 33 44 48 47 46 44 45 47 50 51 53 56 54 53 48 52 53 52 53 55 56 57 54 56 56 55 56 57 57 57 56 56 55 54 53 46
4 4 5 3 3 2 0 2 5 8 12 18 22 29 42 46 47 46 45 43 45 49 48 51 60 58 54 51 48 48 49 51 52 56 57 55 56 55 53 52 52 52 55 50 52 51 49 49 49
4 5 2 2 5 5 3 7 7 6 8 12 17 31 40 43 45 45 44 41 42 45 47 51 58 60 57 51 47 48 48 50 50 53 55 53 52 52 51 49 48 46 45 46 47 47 47 50 48
4 6 4 5 7 8 10 11 13 8 11 15 23 32 38 41 42 41 42 42 43 44 47 50 55 61 56 54 49 51 51 50 53 52 51 52 51 50 49 48 47 45 44 44 44 44 45 45 44
13 15 15 15 15 15 15 14 16 15 12 12 22 28 32 36 38 40 42 42 43 45 47 49 54 60 55 49 50 51 51 50 50 47 48 51 51 51 49 47 45 44 43 43 44 45 46 45 42
18 17 18 19 19 18 17 14 14 16 17 14 16 23 29 32 34 37 41 43 43 45 46 50 55 59 54 49 48 47 45 45 44 44 47 48 49 48 49 47 46 45 45 46 45 44 44 44 43
15 16 15 18 19 21 19 15 15 19 18 17 18 18 24 30 33 35 39 41 43 43 43 47 54 57 53 46 46 44 43 44 44 44 45 47 48 48 48 46 46 46 47 46 45 43 43 43 42
13 12 11 17 20 20 18 15 19 22 21 19 19 21 21 27 33 39 43 43 40 40 41 45 54 54 50 46 45 46 46 46 43 43 41 41 43 43 46 45 45 48 47 47 46 45 44 43 43
7 4 6 8 18 14 13 14 18 20 21 21 20 19 21 25 32 41 39 38 36 40 46 48 53 51 48 45 45 41 41 40 40 39 39 42 43 44 44 44 44 45 43 43 44 47 46 46 45
11 9 10 12 19 18 16 16 18 22 22 25 25 24 23 27 37 37 38 38 41 46 47 48 48 45 41 38 37 36 37 37 38 39 41 42 41 41 40 39 39 41 39 41 44 45 44 45 46
16 14 14 18 20 20 18 17 19 22 25 24 25 27 30 32 32 35 39 41 41 41 41 40 39 39 38 37 38 41 41 40 40 41 40 38 38 38 37 37 37 36 37 40 42 43 43 44 44
20 18 22 21 21 21 19 17 19 21 23 25 25 26 27 29 30 32 36 39 41 41 39 39 39 40 41 40 38 38 38 37 37 37 38 37 39 37 36 35 35 37 39 38 40 40 40 40 41
19 24 25 23 20 15 20 14 20 20 22 24 26 27 28 29 31 33 36 39 41 42 41 40 40 39 40 41 39 40 38 38 38 38 38 38 36 33 32 32 35 38 40 41 41 37 42 41 40
24 29 26 25 22 19 17 13 21 20 21 23 26 29 31 32 34 35 37 38 40 42 42 41 40 40 41 41 41 40 39 39 38 37 36 35 32 33 32 32 35 37 39 39 40 40 40 40 40
29 28 26 27 24 19 21 18 21 22 24 24 26 30 32 33 35 36 37 37 39 41 43 42 40 39 40 41 41 39 39 38 36 35 34 33 34 32 32 32 36 39 39 39 39 43 41 40 40
26 24 22 23 22 21 23 16 26 26 27 27 29 32 35 36 36 36 36 36 38 39 40 41 39 39 38 38 39 38 37 38 36 35 34 33 31 31 33 35 37 37 38 40 41 41 40 39 38
26 26 26 18 19 18 22 13 24 28 30 31 31 32 33 35 36 36 36 37 38 38 39 41 41 39 39 39 40 40 39 37 36 35 33 32 32 34 34 35 38 39 40 39 39 39 39 38 37
27 26 27 28 28 26 16 20 28 29 29 30 30 32 32 33 33 34 35 36 38 38 38 41 40 38 37 39 40 39 37 37 35 33 32 33 33 33 36 39 39 37 38 38 38 37 38 37 37
29 28 26 24 22 13 10 9 19 27 28 29 29 30 31 32 33 35 36 37 37 38 39 39 38 37 38 37 36 36 36 35 32 32 32 32 32 32 32 34 34 37 37 37 37 36 36 36 36
27 27 27 22 23 20 14 13 22 23 26 28 28 29 31 33 35 34 35 37 37 38 37 36 36 36 35 34 34 33 33 33 31 31 31 34 33 33 33 33 35 37 36 36 37 38 36 36 32
29 26 24 22 18 22 24 22 25 26 26 27 28 30 33 34 34 34 35 37 37 36 36 34 33 31 32 33 31 29 29 30 30 32 33 33 34 33 34 37 38 35 35 36 36 35 32 31 30

GFSSGP_sfc_30mbdewp_018.txt.gz
Dewpoint
40 31 27 24 20 15 13 24 31 33 34 35 35 34 38 46 47 45 48 56 61 63 65 68 70 69 69 69 70 69 69 68 68 68 68 66 66 66 64 63 63 63 63 63 63 64 65 64 64
32 32 20 21 18 15 18 26 29 32 32 29 34 33 40 43 47 45 49 56 58 63 65 68 70 70 70 70 70 69 68 67 67 67 66 66 66 65 64 63 63 63 64 64 64 65 65 65 64
39 29 18 17 15 12 19 26 34 32 31 33 34 42 40 42 45 45 50 55 57 62 66 68 69 69 70 70 70 69 69 69 68 68 67 66 65 63 62 63 63 64 63 63 63 62 62 62 62
28 18 14 13 13 19 20 31 32 31 35 34 34 41 44 45 45 45 48 50 53 60 64 66 67 67 68 68 68 68 68 68 68 67 66 65 63 62 63 64 64 63 62 62 63 63 63 63 63
26 19 12 13 20 25 29 30 29 31 32 31 31 42 46 47 45 42 43 45 47 56 61 63 64 65 65 65 65 66 66 66 66 66 65 64 63 63 63 62 62 61 61 61 62 63 62 61 60
16 14 12 13 21 26 29 29 28 34 31 26 33 42 47 47 44 42 41 43 45 52 56 58 63 64 64 64 64 64 64 65 66 66 65 64 63 62 62 61 61 60 60 59 60 60 60 60 58
19 15 13 18 21 24 26 25 21 21 24 25 30 39 45 45 46 42 41 42 46 48 50 56 59 60 61 62 63 63 63 63 63 63 63 63 61 61 60 60 60 59 59 58 58 57 57 57 57
14 12 12 16 16 18 17 20 19 19 26 26 31 37 41 46 45 42 42 43 45 49 51 54 57 59 60 61 61 62 62 62 61 61 60 61 61 61 58 59 58 58 57 57 56 56 55 55 55
11 7 11 9 10 6 6 5 9 18 22 22 31 35 44 46 44 42 42 44 46 49 52 52 52 52 56 59 60 61 61 61 61 61 59 59 60 60 59 56 56 56 56 56 56 55 53 53 53
5 6 2 3 4 4 3 4 7 15 17 23 32 43 46 45 45 43 42 44 48 50 52 54 54 54 52 47 57 60 59 60 60 60 59 59 57 57 55 56 57 57 57 57 57 56 55 55 52
6 5 4 2 5 3 2 2 9 11 12 21 25 41 45 45 44 43 42 44 46 48 50 56 58 56 54 52 48 53 54 54 57 60 57 58 56 58 56 57 59 59 58 58 56 56 56 54 52
4 3 -0 1 3 1 -0 2 4 6 12 17 24 34 43 43 43 44 43 43 44 48 48 57 59 59 56 55 52 52 54 52 55 55 56 55 55 55 53 53 50 50 48 49 50 48 51 50 52
3 1 1 3 5 7 8 8 11 7 13 15 26 32 40 41 43 44 44 42 43 45 48 51 59 61 58 54 53 53 53 56 54 54 54 55 54 54 54 52 51 50 49 48 48 48 48 49 48
7 6 8 9 9 10 8 12 14 11 11 13 23 31 37 40 41 42 42 42 43 45 48 53 58 61 56 51 52 53 54 55 55 51 50 52 53 54 53 52 51 50 49 50 48 47 48 49 48
14 13 14 15 14 13 15 14 13 15 13 12 19 25 31 35 37 39 41 42 43 46 46 54 57 60 55 50 50 50 49 45 47 49 49 49 50 51 52 51 50 51 51 50 50 49 48 48 48
13 15 14 16 17 18 16 15 13 16 16 15 14 18 25 31 32 37 41 41 42 43 45 49 54 60 56 52 49 47 49 48 46 47 48 48 49 50 50 51 51 51 52 51 50 50 49 47 47
15 12 14 18 16 19 16 16 15 18 20 19 18 18 20 26 32 36 39 41 41 41 42 43 56 56 55 50 47 48 48 48 48 45 44 46 45 48 48 48 49 50 49 49 49 48 48 48 48
12 7 6 9 17 13 12 13 18 20 20 20 19 19 21 22 29 40 40 40 40 46 45 48 55 54 51 48 47 45 44 44 44 43 45 46 45 46 45 45 47 49 46 46 46 47 48 47 48
9 7 7 14 19 16 11 13 16 20 21 21 22 22 23 36 38 39 40 43 46 48 49 50 47 45 43 41 40 42 43 43 43 43 45 43 44 43 43 42 43 42 42 43 44 44 44 44 46
12 13 12 16 18 17 13 16 19 21 24 23 23 24 33 34 37 40 42 43 42 42 42 41 42 42 42 42 41 43 43 42 42 43 43 43 43 42 41 42 41 41 41 41 43 44 44 43 44
16 16 22 20 20 19 17 17 19 22 24 24 27 30 31 32 34 37 40 43 44 42 41 41 41 42 43 44 41 42 42 41 41 42 41 42 42 40 39 39 39 40 41 41 42 41 42 42 43
17 26 25 21 20 16 19 13 19 21 22 25 27 29 29 30 32 36 40 42 44 43 43 41 41 41 42 43 43 43 43 42 42 42 41 41 39 40 38 37 38 40 41 41 42 42 43 43 42
23 27 24 23 21 19 16 17 20 21 22 26 28 30 32 34 35 36 38 40 42 44 44 43 42 40 42 43 43 42 42 42 41 41 41 39 39 38 37 36 38 39 40 41 43 45 42 41 40
26 27 25 25 23 22 18 19 25 22 22 25 28 31 32 34 36 37 38 39 42 43 44 43 41 40 41 40 41 41 42 41 41 40 39 37 36 36 36 37 38 39 43 43 43 42 41 39 38
26 24 24 26 22 23 24 15 27 26 27 26 29 33 35 36 37 36 36 37 39 40 41 41 42 41 41 42 42 43 42 41 39 38 37 35 35 35 36 39 41 41 42 40 40 40 39 38 37
25 25 27 22 24 22 19 14 25 28 30 31 32 33 34 35 36 35 36 37 38 39 40 41 42 40 39 41 42 42 40 40 39 37 35 35 35 36 37 37 40 39 40 40 40 40 39 39 39
27 26 23 26 28 25 16 25 28 29 29 29 30 31 32 33 33 35 36 37 38 38 40 41 40 39 39 39 39 39 39 39 37 35 35 35 36 35 35 36 38 38 39 38 38 37 36 37 38
26 25 24 26 21 17 12 14 25 28 28 30 28 29 30 31 33 35 35 38 39 39 40 40 38 37 37 36 36 35 35 35 35 34 35 36 35 35 35 36 37 38 38 37 37 37 37 37 38
26 25 25 22 22 21 18 16 20 22 27 28 28 28 31 33 34 35 36 38 39 40 38 38 36 33 33 34 34 33 33 33 34 36 35 35 35 33 35 35 37 37 36 36 36 37 36 35 33
25 24 23 24 20 25 24 21 23 25 26 29 30 31 33 34 36 36 38 38 38 37 37 35 31 32 33 33 31 30 31 31 33 33 34 33 32 32 31 30 30 31 33 34 35 32 33 32 31

GFSSGP_sfc_30mbdewp_021.txt.gz
Dewpoint
32 31 34 26 21 20 16 19 33 33 29 40 44 47 46 46 46 46 62 65 67 67 69 70 69 70 70 70 70 69 69 68 68 67 68 67 66 64 64 64 64 64 64 64 64 65 65 64 64
36 29 31 22 19 17 20 31 29 28 32 42 42 44 43 44 49 54 60 64 66 68 69 69 69 70 70 70 69 68 68 68 68 67 67 66 65 64 63 64 64 64 63 63 63 63 62 63 62
34 32 20 19 17 14 22 31 29 30 34 40 43 44 43 43 48 54 63 65 67 68 69 69 70 70 70 69 69 69 69 68 68 68 67 65 63 63 63 64 64 63 63 62 62 62 62 63 63
31 24 15 12 12 23 32 32 32 34 36 42 42 44 44 45 47 53 62 63 65 66 67 68 68 68 69 68 68 68 68 68 67 67 65 63 63 63 64 63 62 62 61 62 63 63 63 62 61
36 24 13 14 17 29 30 31 33 34 35 45 46 43 42 45 48 49 58 60 62 63 65 65 66 66 67 66 66 66 66 66 66 65 65 63 63 63 63 62 61 61 60 60 60 60 61 60 59
20 18 13 12 25 28 26 26 36 35 32 46 46 44 42 42 42 44 53 57 60 60 62 63 64 64 64 64 64 64 65 65 65 65 64 63 62 62 62 61 60 60 59 59 58 58 58 58 57
20 18 14 12 19 25 24 22 24 31 27 43 47 44 43 41 41 43 46 53 55 57 57 61 62 62 62 62 62 62 62 63 63 62 62 61 61 61 61 60 59 58 57 56 56 55 54 55 55
19 15 12 13 20 17 20 13 25 24 23 40 45 43 43 43 42 42 46 48 50 53 56 56 59 60 61 61 61 61 61 61 60 60 61 60 60 59 59 59 58 57 55 55 55 54 54 55 54
18 12 9 8 12 11 11 7 11 23 24 38 40 44 45 43 41 41 43 45 48 51 54 57 57 58 59 59 60 60 60 60 59 60 60 60 60 59 58 59 57 57 56 56 56 54 54 55 54
12 8 3 5 6 4 5 6 8 18 25 42 44 45 44 42 42 41 42 45 49 51 54 55 54 58 59 57 59 60 61 61 60 60 61 60 59 60 59 57 57 57 57 57 57 57 56 57 55
6 3 1 3 5 4 3 6 11 16 20 39 44 44 44 43 43 42 42 47 48 51 54 55 53 53 54 54 57 59 60 60 60 60 57 55 58 57 55 58 58 57 58 57 57 57 57 55 55
4 1 1 2 5 1 1 3 4 12 17 31 45 45 45 44 43 42 42 45 48 51 55 57 56 54 55 53 53 54 55 56 56 57 55 54 55 52 53 50 49 51 51 54 52 51 49 50 50
1 2 2 3 7 8 7 7 8 12 17 29 45 45 44 44 44 44 44 45 47 50 56 58 58 56 55 53 54 53 56 53 54 55 54 53 55 52 52 53 51 51 50 49 48 47 47 47 47
4 1 3 3 8 10 7 13 14 12 14 28 41 43 43 43 43 44 44 43 47 48 56 60 62 60 57 54 53 53 55 53 55 52 52 53 52 53 53 51 52 50 51 51 50 49 49 49 49
11 8 9 11 11 12 13 14 13 11 12 22 31 39 40 41 43 43 43 44 45 48 58 61 58 55 58 55 50 51 52 46 50 49 50 51 50 50 50 51 51 51 53 51 50 50 50 49 48
12 15 13 15 15 15 14 13 14 14 11 18 20 24 36 40 41 42 41 44 45 53 56 58 60 54 60 55 49 49 48 47 46 49 51 50 50 50 49 48 48 50 50 49 49 49 49 49 49
14 12 16 15 18 18 16 15 16 16 16 14 18 20 25 33 36 41 42 43 44 46 53 57 61 60 57 51 49 49 48 46 47 45 46 46 48 46 44 44 44 46 46 45 47 46 47 45 45
13 11 17 16 16 15 12 13 17 18 20 21 20 19 27 38 39 43 46 48 49 51 50 49 52 52 51 48 46 46 46 45 45 45 45 44 44 43 42 41 43 41 41 41 42 42 43 44 44
12 13 17 18 18 15 15 11 20 23 22 21 28 36 38 41 42 42 44 45 45 44 43 43 43 42 43 42 41 42 41 42 42 44 43 44 43 42 41 43 42 42 41 42 42 43 42 40 43
13 18 21 19 19 16 16 17 22 24 24 27 34 36 38 40 41 42 43 43 42 42 42 42 42 42 42 43 43 44 43 44 44 43 44 43 41 40 38 38 39 40 41 41 42 41 39 40 43
24 23 22 21 21 21 19 18 22 24 27 31 33 35 36 39 41 42 42 42 42 41 41 41 42 42 43 43 43 43 43 43 42 41 42 41 40 38 38 37 38 40 40 40 40 40 42 43 43
25 28 26 23 21 19 19 16 21 23 27 28 30 32 34 37 41 42 43 42 43 43 43 42 42 42 43 43 42 42 42 40 42 42 41 39 38 37 37 37 38 38 39 40 43 44 42 41 39
25 27 26 25 23 23 22 19 21 24 26 29 31 34 35 37 39 41 42 43 43 43 43 42 42 43 43 43 43 42 42 42 42 40 38 37 36 37 36 36 40 42 42 42 42 41 40 40 39
25 28 28 28 25 23 30 23 26 23 27 29 31 33 35 36 37 39 41 42 43 43 43 43 42 41 43 43 43 42 41 40 38 37 35 35 36 36 36 40 40 42 40 40 40 40 38 38 38
27 26 26 23 25 24 30 25 30 29 28 30 33 36 37 37 37 37 39 41 42 41 42 42 41 40 42 42 43 41 40 39 37 35 34 34 35 35 37 37 40 40 40 40 39 39 39 39 37
28 26 22 22 21 22 27 24 27 31 32 34 35 35 36 36 36 36 36 37 39 41 40 41 40 39 40 40 40 39 39 39 36 35 34 34 36 36 36 36 39 39 40 38 38 38 37 37 37
27 23 23 27 30 24 24 27 29 30 30 31 32 34 35 36 35 36 38 39 39 40 41 40 38 38 38 37 37 36 37 37 35 34 36 36 35 34 33 35 37 38 38 38 37 37 37 36 37
26 24 25 24 20 18 18 26 28 29 31 33 31 30 32 35 36 37 38 39 39 39 39 38 37 35 34 34 35 34 32 33 34 35 34 34 34 34 32 33 36 37 37 37 36 35 36 35 36
26 26 25 24 24 20 19 18 23 31 35 34 31 33 35 36 37 38 39 38 38 38 38 37 33 33 33 32 32 30 30 31 35 35 34 33 33 33 32 33 31 32 34 34 34 33 33 33 33
25 26 26 21 21 27 25 22 27 32 32 32 32 35 35 35 36 38 38 37 36 36 34 33 32 32 32 30 29 28 30 31 33 33 33 33 32 30 30 27 24 24 23 25 25 26 25 23 22

GFSSGP_sfc_30mbdewp_024.txt.gz
Dewpoint
35 29 33 26 19 20 16 17 34 37 43 46 46 45 46 47 46 46 65 67 68 69 69 69 70 70 70 70 70 70 69 68 67 67 67 65 65 64 64 64 64 63 63 63 63 63 63 63 62
35 30 30 22 18 17 27 29 37 40 44 43 44 49 50 53 59 62 63 66 68 69 69 69 70 70 69 69 69 69 68 67 67 67 66 65 64 63 63 64 64 63 62 61 61 61 62 62 63
32 31 19 19 18 15 27 29 32 39 43 43 44 45 44 49 58 61 65 67 68 68 69 70 70 69 69 69 69 69 68 68 68 67 65 63 63 63 64 63 62 61 61 61 61 62 62 62 61
30 21 15 12 11 16 30 31 39 42 43 44 44 43 45 52 57 64 66 67 67 68 69 69 69 69 69 69 68 68 68 68 67 66 64 63 63 63 62 62 61 60 60 60 60 61 61 60 60
33 21 13 12 21 29 30 33 37 42 45 44 43 42 44 57 63 64 65 66 66 66 67 67 67 68 68 67 67 67 67 67 65 65 64 63 62 62 62 61 60 59 59 59 58 58 58 58 58
19 18 12 12 25 32 24 35 43 45 43 42 42 42 43 55 58 60 62 63 64 64 65 65 65 65 66 65 65 65 65 64 64 64 64 62 62 62 61 60 59 58 56 56 55 54 55 55 55
19 17 13 12 14 24 28 29 40 45 46 45 42 40 41 47 53 56 58 60 61 61 62 63 63 63 63 62 62 62 63 64 63 63 62 61 61 61 60 59 58 57 56 55 54 53 54 54 55
20 16 12 12 21 25 24 24 28 42 44 46 43 39 38 42 48 53 56 55 56 58 60 60 61 61 60 60 60 61 61 61 61 61 60 60 60 60 60 59 58 57 56 55 54 54 54 54 54
18 16 12 10 16 14 12 21 23 34 42 40 42 41 40 43 47 50 50 50 52 54 56 58 58 58 59 60 61 61 60 60 60 60 60 60 60 59 59 59 57 58 57 56 56 56 56 56 55
18 12 5 8 11 7 6 16 18 34 42 44 44 44 42 43 44 45 46 48 50 53 54 55 56 57 58 58 60 59 60 60 60 60 60 59 59 60 58 59 59 59 58 57 58 58 59 58 56
11 5 2 4 6 6 6 8 16 36 40 44 43 42 40 40 42 43 45 47 50 53 55 56 57 58 57 56 58 59 60 60 60 60 60 60 59 60 60 58 58 58 57 57 56 56 55 55 54
1 2 2 7 4 4 7 8 8 18 36 45 43 42 41 41 40 41 43 47 51 53 54 54 56 58 56 55 57 58 58 59 59 60 57 55 53 53 53 52 51 51 50 52 51 52 49 49 49
1 1 2 8 9 4 6 8 12 15 41 45 43 43 42 42 41 42 43 46 51 53 54 55 55 55 53 54 55 55 56 58 58 56 55 54 53 52 52 53 51 51 51 51 50 49 49 49 49
2 2 2 5 9 10 11 12 12 17 44 44 43 43 44 43 43 43 43 44 49 54 58 59 58 57 56 53 53 54 55 54 56 54 53 53 54 52 53 51 51 50 52 51 50 49 49 49 50
6 5 6 5 10 10 15 14 12 17 44 44 44 44 44 44 44 43 44 44 48 57 60 57 58 57 58 54 52 53 53 53 53 51 53 53 52 51 51 50 48 49 49 47 47 47 47 46 46
11 12 10 12 12 14 14 13 15 15 35 43 43 43 44 44 44 44 44 45 51 59 59 60 57 55 56 58 52 50 47 47 49 50 51 51 51 49 47 45 44 46 44 43 44 43 43 43 44
15 11 14 15 15 15 14 14 17 12 24 31 37 37 38 40 44 46 47 50 54 58 59 60 57 55 57 55 50 50 49 47 47 47 47 48 46 45 43 43 44 43 42 42 43 42 43 42 41
11 14 16 15 16 17 15 14 17 14 13 18 23 38 42 44 46 47 48 48 50 55 58 58 57 57 56 48 46 46 44 45 46 45 44 43 43 41 41 41 41 42 41 41 42 42 42 41 39
14 18 17 17 18 15 15 18 20 21 23 32 39 41 41 41 43 44 45 45 43 44 45 45 44 44 44 45 43 42 42 43 44 44 43 41 39 39 38 38 39 40 39 40 41 42 39 38 42
20 18 18 19 21 16 19 19 23 27 33 38 39 40 40 41 42 43 44 44 44 43 43 42 42 42 42 43 43 43 43 43 43 43 40 39 38 38 36 38 38 39 39 39 40 40 41 41 43
27 23 22 21 22 22 20 20 28 32 35 37 38 40 41 41 41 41 41 43 43 42 42 41 41 42 42 42 42 43 43 42 42 41 39 38 38 37 37 38 40 41 42 42 43 43 41 41 41
26 27 25 22 20 11 19 17 23 29 31 33 35 39 41 41 42 41 41 41 41 42 42 42 42 43 43 42 42 41 41 40 41 39 37 36 38 37 37 40 41 41 42 41 42 42 41 40 39
24 26 25 25 23 24 24 19 22 29 30 33 35 38 40 41 41 41 42 42 42 42 42 42 42 43 43 43 43 42 41 40 40 37 36 35 36 36 39 38 41 41 40 40 40 38 38 39 37
25 27 30 28 26 22 28 22 22 26 30 32 35 37 39 40 41 42 43 43 43 43 43 42 41 42 43 43 42 40 39 38 36 35 34 35 36 37 36 37 41 40 39 39 39 39 38 37 37
26 28 24 23 25 22 31 28 28 31 31 32 35 36 37 38 40 41 41 42 43 42 42 41 40 42 43 42 40 40 38 37 35 34 33 33 35 35 35 36 38 39 39 39 38 38 36 36 36
27 26 22 21 18 19 25 25 29 34 35 36 36 36 36 36 38 40 40 41 41 41 41 41 40 40 41 40 38 39 39 37 35 35 34 36 34 34 34 35 38 39 39 38 38 37 36 37 36
26 23 26 26 28 23 26 27 29 32 33 34 35 36 35 36 37 39 39 39 40 40 38 37 37 38 37 37 36 35 37 36 35 35 36 35 34 34 33 33 35 38 38 38 37 36 35 35 35
22 25 25 23 17 16 20 26 28 31 31 32 32 34 36 37 38 38 38 39 39 39 38 38 37 35 35 35 34 32 31 34 35 36 35 34 33 33 32 31 33 33 36 36 36 35 34 33 33
25 25 25 24 24 17 18 18 27 31 35 32 34 35 36 37 38 39 38 37 36 35 33 34 33 33 33 32 32 31 30 31 35 35 34 34 33 33 32 31 31 26 26 26 28 29 29 27 24
25 26 25 16 19 25 23 20 31 32 32 32 35 35 36 37 38 37 37 36 33 32 30 32 30 31 32 32 30 29 29 29 34 34 34 34 32 32 29 29 23 23 23 24 24 25 24 23 22

GFSSGP_sfc_30mbdewp_027.txt.gz
Dewpoint
34 29 32 26 19 20 16 17 35 38 43 46 47 47 50 54 49 45 63 66 68 68 69 69 70 70 70 70 69 69 68 67 67 66 65 65 65 64 64 64 64 63 61 60 60 61 61 62 62
32 31 28 22 18 16 26 28 38 41 46 46 48 50 52 56 61 63 63 67 68 68 69 69 70 70 70 70 69 68 67 67 67 66 65 65 63 63 64 63 62 61 60 60 60 60 61 61 60
35 29 17 18 18 17 25 34 42 43 43 44 43 45 48 58 62 62 65 68 68 68 69 69 69 69 69 69 68 68 68 68 67 66 64 63 63 63 62 62 61 60 60 59 59 59 59 59 59
30 19 15 13 13 15 24 33 42 43 44 44 45 45 47 57 61 64 67 68 66 68 69 69 69 69 69 69 68 68 68 68 66 65 63 63 63 62 61 61 60 59 58 58 57 58 58 58 57
29 19 11 12 13 28 31 38 42 42 43 44 44 45 49 62 65 66 66 66 65 67 68 68 68 68 68 68 68 68 67 66 65 65 64 62 62 61 61 60 59 58 57 56 55 56 56 55 55
17 17 11 25 25 31 29 44 45 42 43 44 47 47 48 63 64 65 66 65 66 66 67 67 67 67 67 67 67 66 66 64 64 64 63 62 62 61 60 59 57 57 55 54 54 54 55 55 55
17 15 13 12 26 29 32 30 43 41 43 43 43 43 53 57 62 63 64 64 64 64 64 65 65 65 65 64 64 64 63 63 62 62 62 62 61 61 60 58 57 56 55 54 54 55 55 55 55
20 15 12 12 28 33 31 28 42 45 44 43 42 44 53 52 58 60 61 61 61 61 61 61 62 62 62 62 62 62 62 62 62 62 61 60 60 60 60 59 58 57 55 55 55 55 56 56 56
19 16 12 10 30 33 34 27 29 41 43 43 43 42 50 51 55 55 55 55 56 58 59 60 60 60 59 59 60 61 61 61 61 61 60 59 59 59 59 59 58 58 57 57 57 58 58 58 57
20 16 13 13 18 28 25 35 40 43 43 43 40 42 47 50 51 48 48 49 52 53 56 58 58 58 58 58 59 59 60 60 60 60 59 59 59 59 59 58 59 60 60 59 59 59 59 58 55
16 12 3 6 12 14 21 32 30 42 42 42 39 42 45 48 48 44 44 46 47 51 54 56 56 57 57 57 59 58 59 59 59 60 60 59 59 59 60 59 57 57 55 54 54 52 53 50 51
6 4 4 6 6 7 11 13 35 26 40 43 40 42 44 45 45 46 45 47 49 52 53 55 56 56 56 56 57 57 58 59 59 59 60 58 56 54 54 52 51 51 51 51 50 50 49 49 49
2 2 7 7 5 4 7 11 13 18 43 43 41 41 42 42 43 44 46 47 50 52 54 55 56 57 56 55 56 57 57 58 58 59 57 55 52 52 52 51 51 51 51 50 49 48 48 47 46
3 3 6 9 8 10 11 13 15 31 45 42 40 40 40 41 41 42 44 47 51 53 54 55 56 56 54 54 55 55 57 58 58 57 55 54 54 52 52 51 49 48 49 47 46 46 45 43 45
5 2 5 8 8 10 15 12 15 35 44 42 41 41 41 41 41 41 43 46 52 54 54 56 57 57 54 53 53 55 55 54 55 54 53 53 52 51 50 47 46 46 45 43 43 43 43 42 43
11 12 9 10 11 13 12 6 14 40 43 43 42 42 43 44 44 44 44 45 51 55 57 59 59 57 58 55 51 50 48 49 50 51 51 48 47 46 44 43 42 43 42 42 42 42 42 41 41
15 10 11 14 14 14 12 10 15 36 44 43 43 40 42 45 48 50 52 51 53 58 59 59 58 57 55 52 50 46 47 47 47 46 44 43 42 42 40 40 41 41 40 40 41 39 41 38 37
8 12 14 13 15 15 13 12 17 24 36 34 39 43 44 44 45 46 49 54 57 57 56 56 56 56 49 48 46 45 45 44 44 42 40 40 39 39 38 38 39 39 38 38 39 39 40 39 40
15 16 15 17 18 16 16 19 27 22 30 36 41 42 43 44 44 46 46 47 49 47 47 48 47 46 46 46 44 43 42 43 41 39 39 38 38 38 37 39 40 40 40 41 42 41 41 40 42
20 17 18 21 22 17 19 26 34 35 38 40 41 41 42 42 42 43 44 46 45 45 45 42 42 42 42 42 44 43 43 42 40 38 38 38 37 37 39 40 40 41 40 40 42 42 41 42 41
26 22 22 20 22 21 21 23 32 36 39 40 41 41 41 41 41 43 44 44 44 41 40 40 41 41 42 43 43 43 43 43 39 38 37 38 37 38 39 40 40 39 40 39 41 41 39 38 40
23 27 24 22 19 14 20 19 29 31 35 37 40 40 41 41 43 43 43 42 41 41 41 42 42 42 42 42 41 40 39 40 40 37 37 36 37 38 38 38 39 39 40 39 39 39 38 37 36
23 27 25 24 22 23 26 22 25 31 33 36 38 40 41 42 42 42 42 41 42 42 42 42 43 43 43 43 42 42 40 39 38 37 35 35 36 37 36 37 40 39 39 39 38 38 37 37 36
26 28 30 30 26 22 29 21 25 28 32 35 37 40 41 41 41 41 42 43 43 43 41 41 43 43 43 42 42 40 39 37 36 35 34 34 36 36 35 37 40 39 38 38 38 38 37 36 36
27 28 23 23 23 22 27 26 26 28 31 35 37 38 40 41 41 42 43 43 43 42 41 41 41 42 42 41 40 39 38 37 35 33 33 32 34 35 34 34 38 38 38 39 39 38 36 35 34
26 26 22 21 21 20 27 25 28 34 34 35 37 38 38 39 40 41 42 41 41 41 41 40 41 40 41 39 39 39 37 36 35 34 34 33 34 34 34 32 37 38 38 39 38 37 36 35 34
27 23 26 26 27 23 26 28 31 34 34 35 35 36 36 37 38 39 40 39 39 38 38 37 38 40 39 37 37 37 38 37 35 35 35 35 36 34 34 32 35 36 38 38 37 36 35 34 34
22 28 23 21 14 16 21 26 27 31 34 35 35 35 37 38 38 38 38 38 38 38 36 36 37 36 35 34 34 33 33 34 36 36 35 35 35 34 34 32 33 34 33 35 34 33 32 32 31
25 24 25 25 24 15 18 22 24 31 33 32 35 36 37 37 38 37 36 36 35 33 31 33 34 33 33 33 33 32 32 31 32 35 35 35 35 34 33 33 32 30 26 26 26 26 27 25 23
26 25 23 10 16 24 20 19 28 33 34 34 35 36 38 38 37 36 36 34 32 31 30 32 30 30 31 33 32 30 30 30 30 32 34 35 34 34 33 33 34 34 27 24 24 23 25 23 21

GFSSGP_sfc_30mbdewp_033.txt.gz
Dewpoint
41 30 31 28 19 22 23 15 31 44 47 52 53 51 52 55 51 47 64 66 67 67 68 67 69 70 70 69 69 69 67 66 66 65 65 64 63 64 63 61 61 59 58 57 57 56 56 56 56
32 31 27 24 17 16 22 22 40 47 51 54 52 54 47 46 60 62 63 67 67 67 68 67 69 70 69 69 69 68 67 66 65 65 64 63 63 62 61 61 61 58 56 55 55 54 54 55 56
33 26 20 18 18 13 20 41 48 51 52 46 46 50 52 49 62 62 66 67 67 67 67 68 69 69 69 69 68 68 67 67 66 64 63 63 61 60 60 60 60 57 55 55 55 55 53 54 56
29 20 17 15 14 17 26 44 45 47 46 47 45 45 56 61 62 64 67 66 66 67 68 69 69 69 69 69 68 68 67 67 65 64 63 61 60 59 60 59 58 56 56 56 56 56 56 57 58
24 18 12 14 19 27 27 43 45 45 49 46 46 44 54 63 65 66 66 66 66 67 68 68 68 69 69 68 67 68 67 66 65 64 63 61 59 59 59 58 57 56 56 57 57 57 58 59 59
22 17 11 27 32 33 43 45 44 44 44 44 47 49 55 64 65 65 66 66 66 66 67 67 68 68 68 68 68 67 65 64 64 64 63 62 61 60 58 58 57 57 57 58 58 59 59 60 60
21 14 15 34 33 32 42 46 46 43 43 43 48 51 58 63 63 64 64 65 65 65 66 66 66 67 68 68 67 65 64 64 64 63 63 61 60 60 59 59 59 59 59 60 60 60 60 60 59
21 17 23 33 34 36 39 44 44 40 40 45 53 51 55 60 64 64 64 65 65 65 65 65 66 65 65 65 65 63 63 62 62 62 61 60 59 59 60 58 60 61 61 60 60 59 59 56 55
20 15 13 22 34 39 42 40 42 44 42 44 43 55 58 62 63 62 61 62 63 64 64 64 64 64 63 62 62 62 62 61 61 61 59 59 58 59 58 59 60 60 58 58 58 57 54 52 51
20 16 13 15 34 32 34 37 40 43 42 41 48 57 61 61 61 60 60 60 61 60 60 61 61 60 60 59 61 61 60 59 60 60 60 59 60 60 59 59 58 56 54 54 54 53 50 48 47
21 17 16 13 34 36 33 35 43 41 41 41 47 56 60 59 60 60 59 56 55 56 57 58 59 59 58 57 59 59 59 59 60 60 60 60 60 60 60 57 53 53 53 50 49 48 46 46 44
16 11 11 6 19 28 33 36 41 41 38 44 51 57 58 58 58 57 54 52 52 52 54 56 58 58 58 57 58 58 58 59 60 60 61 60 59 56 54 53 52 50 48 47 45 44 45 44 43
16 7 8 7 12 26 30 37 40 36 42 48 53 55 55 55 54 52 49 48 49 50 53 55 57 57 57 57 58 58 58 59 60 60 58 56 54 54 52 49 46 45 45 44 43 43 42 41 40
11 6 7 8 14 15 25 24 34 33 43 48 51 50 50 50 49 45 43 44 48 50 52 56 57 58 57 57 57 58 59 60 60 58 57 56 54 51 47 45 43 41 41 41 39 39 39 37 37
7 7 8 10 12 15 15 15 15 40 42 47 47 46 46 44 45 43 43 44 47 50 55 57 58 57 55 56 55 54 55 56 55 54 53 50 47 45 43 42 40 39 40 40 39 38 38 37 38
10 11 5 10 12 14 11 9 18 43 40 43 44 44 44 43 44 46 47 46 49 54 57 58 57 55 55 54 53 53 52 51 50 49 46 44 44 43 41 39 39 41 41 40 39 39 35 37 39
14 4 9 10 14 13 10 14 29 44 40 40 41 42 43 45 47 48 53 53 52 57 58 58 57 56 56 54 53 50 47 46 43 41 41 42 41 42 40 40 40 40 38 38 36 34 37 36 35
10 11 13 10 14 17 17 27 32 31 42 41 42 44 44 45 45 49 55 57 58 58 58 57 57 55 54 54 50 46 43 42 42 41 40 40 40 41 40 39 38 35 34 35 36 36 36 38 36
11 13 13 16 19 26 31 33 34 35 41 42 43 44 44 45 47 51 53 56 57 58 56 56 55 55 54 51 45 42 42 41 40 39 39 40 40 40 39 36 36 35 33 36 37 34 33 30 35
18 18 19 21 21 25 30 32 37 38 40 42 43 44 44 46 49 50 51 54 56 56 55 56 56 53 50 45 44 43 41 40 39 39 39 39 40 39 37 36 35 36 32 35 36 35 29 31 36
23 21 21 20 22 24 25 25 33 37 40 41 43 44 46 49 48 49 51 53 55 55 55 53 51 49 47 45 44 42 41 40 38 38 37 38 39 38 38 37 36 36 35 32 35 35 32 27 30
22 26 23 20 18 16 22 13 28 35 38 41 42 45 46 46 47 47 47 46 46 46 47 48 46 45 45 45 44 43 42 41 40 39 38 37 39 38 37 37 38 38 37 34 33 34 33 33 27
26 27 25 23 23 23 25 18 23 36 36 40 42 43 43 44 44 43 41 41 42 43 44 44 44 44 44 44 44 43 42 41 39 39 39 39 38 39 38 37 38 38 36 35 36 37 37 35 32
31 29 29 29 26 20 28 22 20 32 35 39 41 41 41 43 43 41 41 42 42 43 44 45 44 44 44 44 44 43 42 40 39 39 38 38 37 37 38 37 38 38 38 38 38 38 38 36 35
29 26 20 19 23 21 27 26 24 29 34 40 40 40 41 43 42 41 41 42 42 42 44 44 44 43 43 43 43 42 41 41 39 38 37 37 36 35 36 38 37 37 39 39 39 38 37 37 35
26 27 21 14 21 24 26 25 26 34 33 40 40 40 41 42 42 42 42 43 43 42 42 43 43 42 42 42 41 41 41 40 39 38 38 37 37 37 38 38 37 36 37 38 39 37 36 37 37
26 20 27 25 26 22 24 27 30 34 34 37 38 40 40 41 42 42 43 43 43 42 42 43 41 41 41 40 40 40 39 39 38 37 37 36 37 35 36 37 37 36 36 36 36 35 34 34 34
26 29 21 23 10 9 17 22 23 31 33 35 37 39 40 40 41 42 42 41 40 39 39 40 41 40 40 38 38 36 35 35 34 34 34 33 33 34 34 34 35 36 35 35 34 33 31 30 31
26 24 24 25 22 7 7 11 29 30 33 35 37 38 39 39 40 40 39 39 36 33 34 37 37 35 34 35 35 34 32 32 32 31 32 32 33 32 33 34 35 35 34 35 34 33 29 27 27
27 24 23 12 12 23 20 13 25 31 34 36 37 37 38 39 39 37 36 34 32 31 34 33 32 30 32 33 30 30 31 31 31 30 30 30 30 32 33 35 35 35 36 36 31 27 28 27 25

GFSSGP_sfc_30mbdewp_036.txt.gz
Dewpoint
36 23 18 27 22 22 20 19 32 43 49 50 50 49 50 52 49 49 62 63 63 65 65 66 69 69 69 69 69 68 67 66 66 66 65 64 64 62 61 61 60 58 57 56 54 53 53 55 56
20 27 26 23 18 16 17 24 31 47 51 50 50 47 45 49 59 61 62 65 65 65 64 64 68 69 69 69 69 68 67 66 65 64 63 63 61 61 60 60 60 57 56 55 53 53 55 56 58
27 26 20 13 11 14 19 32 45 46 45 46 47 50 49 51 59 61 64 65 65 64 64 66 69 69 69 69 68 68 67 67 66 64 62 61 60 60 60 59 59 57 56 56 54 55 57 58 59
18 20 17 11 8 14 31 44 45 44 46 45 49 48 56 58 58 63 66 65 64 64 64 68 69 69 69 69 68 68 67 67 65 64 62 60 59 58 59 59 59 57 57 57 57 58 59 60 60
22 16 8 8 14 24 30 44 44 43 47 43 44 43 51 62 61 63 66 65 63 63 65 67 67 68 68 68 68 67 66 65 65 64 62 60 58 58 58 58 58 58 58 58 58 59 60 60 60
12 15 5 8 23 34 36 43 43 44 41 39 42 46 55 63 63 64 65 65 64 65 65 67 68 68 68 68 68 66 65 65 65 64 63 61 60 59 58 58 59 59 59 59 60 60 60 60 59
12 7 8 24 31 37 41 44 41 40 38 36 45 44 59 61 64 64 64 64 65 65 65 64 65 66 68 67 66 65 64 64 64 63 62 61 60 60 60 60 60 60 60 61 60 60 59 57 57
18 13 22 29 32 38 42 41 40 38 37 46 47 47 56 61 64 64 64 64 65 65 62 59 60 60 61 62 65 63 63 63 63 62 61 60 59 60 58 59 61 61 60 60 59 56 55 54 52
21 13 19 31 36 38 39 38 39 39 41 44 47 52 57 63 63 63 64 64 65 63 59 58 58 58 57 56 60 62 62 62 61 60 60 58 55 56 56 60 60 58 58 57 55 53 50 50 48
17 16 14 19 30 31 35 33 37 37 39 42 48 57 61 62 62 61 61 62 63 58 59 60 59 58 57 54 56 56 55 56 57 57 58 57 58 58 57 57 56 55 54 52 51 49 47 44 41
17 16 15 14 27 30 32 34 37 37 37 41 43 57 60 61 61 60 60 57 52 53 53 54 57 57 54 53 54 54 57 58 59 60 59 60 60 60 58 54 52 53 51 49 48 45 44 45 43
18 16 14 8 29 30 29 34 37 38 36 41 43 56 60 59 60 58 50 47 47 50 51 52 54 56 56 54 54 56 56 58 59 60 61 60 59 57 55 52 51 50 48 47 45 44 45 44 43
17 14 10 12 24 30 32 33 35 37 41 45 52 57 55 55 52 45 43 44 47 48 51 53 54 54 55 56 56 57 58 59 60 61 61 58 56 55 53 51 48 47 45 44 43 42 42 41 40
15 10 7 9 17 29 30 35 38 39 45 50 54 52 47 44 41 41 42 43 47 49 52 55 55 56 55 57 59 59 60 60 61 61 60 58 56 54 51 48 45 43 42 42 41 42 40 39 38
10 8 13 17 23 24 29 27 21 38 44 48 47 46 43 37 38 38 39 42 47 50 54 56 58 58 58 57 57 58 57 58 59 58 57 56 53 51 48 45 42 42 42 42 40 38 35 35 33
7 8 10 16 21 17 23 13 23 39 40 42 42 43 43 41 40 40 40 41 44 50 55 58 58 57 57 58 57 56 54 54 55 54 52 50 47 46 43 43 42 43 40 36 32 31 31 28 30
10 3 5 10 13 18 12 12 26 40 38 41 42 42 42 41 42 44 48 46 45 51 57 58 58 57 57 57 55 55 53 49 47 46 45 44 44 44 43 42 40 37 33 33 31 28 30 29 30
8 2 4 4 11 13 11 22 26 40 37 38 41 42 42 42 44 48 51 50 50 54 58 58 59 58 56 55 56 49 46 44 43 42 42 42 43 43 41 37 36 32 30 29 31 31 30 28 31
8 13 10 11 19 15 16 21 26 35 40 38 39 41 42 44 47 51 54 55 55 58 58 58 57 57 56 55 52 47 43 42 42 41 42 42 42 39 35 32 33 32 31 32 31 27 26 26 30
15 14 17 20 19 20 24 25 30 32 38 39 40 41 42 44 47 52 55 56 57 56 57 58 57 59 56 54 49 45 44 42 42 41 42 42 38 36 33 33 31 32 28 31 32 33 30 25 28
21 18 20 18 21 24 24 24 30 34 38 41 43 43 44 45 48 52 55 56 57 57 57 57 57 56 52 46 46 45 44 42 40 40 40 40 38 35 34 33 33 33 33 29 32 32 31 29 27
19 24 22 20 18 13 22 11 26 32 33 37 41 44 45 48 50 53 53 54 55 55 56 53 51 49 47 46 43 42 40 40 41 41 41 36 38 36 33 34 35 35 34 34 32 30 34 32 28
25 25 23 22 20 21 20 15 20 31 32 34 39 43 47 49 49 47 46 47 49 51 51 48 47 46 45 45 45 44 43 43 42 41 38 36 36 38 36 35 35 35 34 35 36 35 34 32 31
30 28 28 26 23 17 19 20 7 17 27 35 39 45 47 46 45 42 40 41 42 44 45 45 44 43 44 45 45 45 43 41 38 35 33 30 32 33 34 35 37 37 38 38 37 36 35 34 34
28 22 14 16 18 14 27 21 12 27 31 35 40 44 44 44 41 39 39 40 42 44 45 45 44 44 45 45 44 42 39 36 34 34 32 35 32 33 33 36 36 36 36 37 37 36 35 35 33
24 21 14 6 12 15 26 20 23 32 32 37 40 43 42 42 40 38 40 41 42 43 44 43 43 42 43 42 40 39 37 35 34 35 37 35 34 33 32 30 30 29 30 32 35 35 34 32 32
25 21 28 26 27 23 18 23 27 32 32 37 40 41 40 39 39 39 41 42 43 43 44 44 42 41 41 41 39 39 37 36 35 35 33 30 29 26 25 27 26 26 28 31 33 34 33 31 29
28 27 22 23 16 9 10 14 11 29 31 34 39 40 38 38 39 40 42 44 44 43 43 43 41 40 40 39 38 35 35 33 30 29 28 27 26 25 26 26 26 28 29 31 33 33 34 32 29
27 25 24 22 22 9 5 2 25 26 30 32 37 38 37 38 40 41 42 43 42 40 39 39 38 37 36 35 35 34 29 28 27 26 26 26 27 27 26 27 29 29 30 33 36 37 36 29 27
27 25 23 13 15 23 22 8 22 29 33 34 34 37 37 39 40 42 42 41 38 35 35 36 35 32 32 33 30 28 25 26 26 26 26 28 28 28 29 31 30 30 32 32 30 30 30 28 27